Home   Weather   Qikiqtarjuaq   Past weeks

Flag for Canada Past Weather in Qikiqtarjuaq, Nunavut, Canada — Yesterday and Last 2 Weeks

Now
9 °F

Light snow. Partly sunny.


Feels Like: 9 °F
Forecast: 0 / 7 °F
Wind: No wind

Location: Broughton Island Airport

Current Time: Apr 23, 2017 at 10:21:27 am

Latest Report: Apr 23, 2017 at 9:00 am


Visibility: 15 mi

Pressure: 30.15 "Hg

Humidity: 85%

Dew Point: 5 °F

Location of QikiqtarjuaqLocation

Past Weather in Qikiqtarjuaq — Graph

°F

Qikiqtarjuaq Temperature Yesterday

Maximum temperature yesterday: 10 °F (at 1:00 pm)
Minimum temperature yesterday: -11 °F (at 1:00 am)
Average temperature yesterday: 4 °F

High & Low Weather Summary for the Past Weeks

 TemperatureHumidityPressure
High16 °F (Apr 12, 11:00 am)100% (Apr 12, 5:00 am)30.31 "Hg (Apr 12, 5:00 am)
Low-24 °F (Apr 15, 2:00 am)65% (Apr 14, 10:00 am)29.45 "Hg (Apr 12, 1:21 am)
Average0 °F83%29.99 "Hg
* Reported Apr 8 8:00 am — Apr 23 8:00 am, Qikiqtarjuaq, Weather by CustomWeather, © 2017

Note: Actual official high and low records may vary slightly from our data, if they occured in-between our weather recording intervals... More about our weather records

Advertising

Qikiqtarjuaq Weather History for the Previous 24 Hours

Scroll right to see more
 ConditionsComfort  
Time TempWeatherWind HumidityBarometerVisibility
8:00 am
Sun, Apr 23
7 °FLight snow. Partly sunny.No wind78%30.16 "Hg15 mi
7:00 am5 °FLight snow. Broken clouds.No wind85%30.16 "Hg15 mi
6:38 am5 °FLight snow. Broken clouds.No wind85%30.15 "Hg15 mi
6:00 am5 °FScattered clouds.2 mph85%30.16 "Hg9 mi
5:00 am7 °FOvercast.2 mph85%30.16 "Hg9 mi
4:00 am5 °FOvercast.No wind92%30.16 "Hg9 mi
3:00 am5 °FOvercast.No wind92%30.16 "Hg9 mi
2:00 am1 °FOvercast.No wind92%30.17 "Hg9 mi
1:00 am1 °FOvercast.No wind92%30.18 "Hg9 mi
12:25 am3 °FOvercast.No wind92%30.19 "Hg9 mi
12:00 am1 °FLight snow. Overcast.No wind92%30.19 "Hg9 mi
11:00 pm
Sat, Apr 22
5 °FLight snow. Overcast.2 mph85%30.20 "Hg9 mi
10:22 pm5 °FLight snow. Mostly cloudy.No wind92%30.20 "Hg7 mi
10:01 pm5 °FLight snow. Overcast.No wind92%30.21 "Hg2 mi
9:54 pm5 °FLight snow. Overcast.2 mph92%30.21 "Hg2 mi
9:00 pm5 °FLight snow. Overcast.No wind92%30.22 "Hg2 mi
8:00 pm5 °FLight snow. Overcast.No wind92%30.22 "Hg9 mi
7:00 pm5 °FOvercast.3 mph85%30.23 "Hg9 mi
6:00 pm5 °FScattered clouds.3 mph92%30.24 "Hg9 mi
5:00 pm9 °FPartly sunny.3 mph85%30.24 "Hg15 mi
4:00 pm9 °FScattered clouds.5 mph85%30.24 "Hg15 mi
3:00 pm9 °FScattered clouds.5 mph85%30.24 "Hg15 mi
2:00 pm10 °FScattered clouds.2 mph72%30.24 "Hg15 mi
1:00 pm10 °FScattered clouds.3 mph72%30.24 "Hg15 mi
12:00 pm9 °FScattered clouds.No wind78%30.24 "Hg15 mi
11:00 am7 °FScattered clouds.3 mph78%30.24 "Hg15 mi
10:00 am7 °FBroken clouds.6 mph78%30.24 "Hg10 mi
Weather by CustomWeather, © 2017

See weather overviewHow to use our weather pages